Location: Aldenham
(51.6667°N, 0.3500°W)
Time: 12:27:20
(UTC+00:00)

A-11 Canister half - Pass Details

Date: 24 February 2026
Orbit: 1513 x 1686 km, 47.2° (Epoch: 17 March)

Event Time Altitude Azimuth Distance (km) Brightness Sun altitude
Rises 00:42:38 0° 283° (WNW) 4,923 11.7 -47.5°
Enters shadow 00:44:04 - 281° (WNW) 4,487 11.4 -47.4°
Reaches altitude 10° 00:45:58 10° 278° (W) 3,918 - -47.4°
Maximum altitude 00:55:21 48° 209° (SSW) 2,043 - -47.0°
Drops below altitude 10° 01:04:25 10° 139° (SE) 3,784 - -46.6°
Sets 01:07:34 0° 134° (SE) 4,743 - -46.5°
